Regional Weather Roundup
Issued by NWS Goodland, KS

Home | Current Version | Previous Version | Text Only | Print | Product List | Glossary Off
Versions: 1 2 3 4 5 6 7 8 9 10 11 12 13 14 15 16 17 18 19 20 21 22 23 24 25 26 27 28 29 30 31 32 33 34 35 36 37 38 39 40 41 42 43 44 45 46 47 48 49 50

000
ASUS43 KGLD 230108
RWRGLD

GOODLAND FORECAST AREA HOURLY WEATHER ROUNDUP
NATIONAL WEATHER SERVICE GOODLAND KS
700 PM MDT FRI AUG 22 2014

...OFFICIAL OBSERVATIONS...

CITY           SKY/WX    TMP DP  RH WIND       PRES   REMARKS
GOODLAND KS    LGT RAIN  64  63  96 N10       29.97S
HILL CITY KS   TSTM      71  66  84 W8G20     29.93R
IMPERIAL NEB   RAIN      69  64  84 NE12      29.98S
MCCOOK NEB     CLOUDY    81  70  69 E15       29.90F
AKRON CO       LGT RAIN  61  59  93 NW20      30.05F
BURLINGTON CO  LGT RAIN  65  62  90 NE20G25   29.95F
LIMON CO       TSTM      59  58  96 NW12      30.12R FOG
$$

...UNOFFICIAL OBSERVATIONS...

CITY           SKY/WX    TMP DP  RH WIND       PRES   REMARKS
COLBY KS       PTCLDY    68  68 100 NW10      29.92F
LENORA KS        N/A     67  32  27 CALM        N/A
NORTON KS      HVY RAIN  72  57  60 SW13G40   29.99R
SHARON SPRINGS   N/A     69  65  87 NE7         N/A
WAKEENEY KS      N/A     72  67  84 MISG        N/A
KIT CARSON CO    N/A     61  58  91 MISG        N/A
YUMA CO          N/A     69  61  75 NE9         N/A
$$


USA.gov is the U.S. government's official web portal to all federal, state and local government web resources and services.